Regional Weather Roundup
Issued by NWS

Home | Current Version | Previous Version | Graphics & Text | Print | Product List | Glossary On
Versions: 1 2 3 4 5 6 7 8 9 10 11 12 13 14 15 16 17 18 19 20 21 22 23 24 25 26 27 28 29 30 31 32 33 34 35 36 37 38 39 40 41 42 43 44 45 46 47 48 49 50
000
ASUS43 KDMX 260008
RWRIA

WEATHER ROUNDUP FOR IOWA
NATIONAL WEATHER SERVICE DES MOINES IA
700 PM CDT WED MAY 25 2016

NOTE: "FAIR" INDICATES FEW OR NO CLOUDS BELOW 12,000 FEET WITH NO
SIGNIFICANT WEATHER AND/OR OBSTRUCTIONS TO VISIBILITY.

* - THESE STATIONS ARE NOT NWS STATIONS...THUS NOT UNDER NWS
QUALITY CONTROL.  THEY ALSO DO NOT REPORT WEATHER SUCH
AS PRECIPITATION OR FOG.

IAZ001>003-012>014-020>022-031>034-043>046-260100-
   NORTHWEST IOWA

CITY           SKY/WX    TMP DP  RH WIND       PRES   REMARKS
CARROLL *      CLOUDY    75  66  73 SW5       29.84S
CHEROKEE *     SUNNY     77  63  62 S8        29.80S
DENISON *      PTSUNNY   77  64  65 S9        29.81S
LE MARS *      PTSUNNY   82  61  47 SW5       29.79S HX  83
ORANGE CITY *  SUNNY     81  61  50 SW5       29.80R HX  81
SHELDON *      SUNNY     81  61  50 SW8       29.78F HX  81
SIOUX CITY     PTSUNNY   80  63  55 S8        29.78S HX  81
6HR MIN TEMP:  77; 6HR MAX TEMP:  84;

SPENCER        MOSUNNY   80  57  45 SW5       29.80F HX  80
6HR MIN TEMP:  76; 6HR MAX TEMP:  81;

STORM LAKE *   MOSUNNY   79  59  50 SW14      29.82S HX  80
$$

IAZ055>058-069>071-079>083-090>094-260100-
   SOUTHWEST IOWA

CITY           SKY/WX    TMP DP  RH WIND       PRES   REMARKS
ATLANTIC *     PTSUNNY   75  68  78 SW8       29.85S
AUDUBON *      LGT RAIN  73  66  78 S7        29.86S
CLARINDA *       N/A     77  68  73 MISG      29.86S
COUNCIL BLFS * PTSUNNY   75  68  78 S7        29.84S
CRESTON *      CLOUDY    75  66  73 SW8       29.88R
HARLAN  *      CLOUDY    75  66  73 S8G14     29.87F
LAMONI         CLOUDY    76  65  68 SW7       29.87S
6HR MIN TEMP:  73; 6HR MAX TEMP:  81;

RED OAK *      CLOUDY    77  68  73 SW7       29.84F
SHENANDOAH *   CLOUDY    79  70  73 SW7       29.84S HX  81
$$

IAZ047>049-059>061-072>074-084-260100-
   CENTRAL IOWA

CITY           SKY/WX    TMP DP  RH WIND       PRES   REMARKS
AMES           CLOUDY    76  62  62 S7        29.85S
6HR MIN TEMP:  73; 6HR MAX TEMP:  79;

ANKENY *       PTSUNNY   77  64  65 SW5       29.85S
BOONE *        CLOUDY    75  64  69 S6        29.85S
CHARITON *     CLOUDY    79  63  57 SW9       29.86R HX  80
DES MOINES     MOSUNNY   79  62  56 CALM      29.85S HX  80
6HR MIN TEMP:  74; 6HR MAX TEMP:  80;

GRINNELL*      SUNNY     79  61  53 SW5       29.86F HX  80
KNOXVILLE *    MOSUNNY   81  63  54 W8        29.84S HX  82
MARSHALLTOWN   PTSUNNY   77  60  55 SW10      29.84F
6HR MIN TEMP:  72; 6HR MAX TEMP:  79;

NEWTON *       MOSUNNY   79  63  57 SW5       29.85S HX  80
PELLA *        MOSUNNY   82  62  50 W5        29.86S HX  82
PERRY *        PTSUNNY   77  68  73 S7        29.85S
$$

IAZ004>006-015-016-023>025-035-036-260100-
   NORTH CENTRAL IOWA

CITY           SKY/WX    TMP DP  RH WIND       PRES   REMARKS
ALGONA *       SUNNY     82  55  39 SW12      29.81S HX  82
CLARION *      SUNNY     79  64  61 SW14      29.82F HX  81
ESTHERVILLE    SUNNY     80  57  45 W10       29.80F HX  80
6HR MIN TEMP:  73; 6HR MAX TEMP:  82;

FORT DODGE *   MOSUNNY   77  61  57 S16       29.84R
MASON CITY     SUNNY     78  65  63 S10       29.83S HX  80
6HR MIN TEMP:  69; 6HR MAX TEMP:  79;

FOREST CITY *  SUNNY     77  59  53 SW3       29.81F
WEBSTER CITY * MOSUNNY   77  64  65 S14       29.82S
IOWA FALLS *   PTSUNNY   79  63  57 S10       29.86S HX  80
$$

IAZ007>011-017>019-026>030-037>042-050>054-066-260100-
   NORTHEAST IOWA

CITY           SKY/WX    TMP DP  RH WIND       PRES   REMARKS
CEDAR RAPIDS   SUNNY     81  60  48 SW13G22   29.84S HX  82
6HR MIN TEMP:  76; 6HR MAX TEMP:  82;

CHARLES CITY * SUNNY     79  61  53 SW14      29.84S HX  80
CLINTON *      MOSUNNY   81  60  48 W14       29.86R HX  82
DECORAH *      MOSUNNY   77  63  61 SW7       29.83S
DUBUQUE        PTSUNNY   78  59  51 SW17G25   29.84S
6HR MIN TEMP:  78; 6HR MAX TEMP:  83;

MONTICELLO *   SUNNY     82  57  42 SW15G24   29.84R HX  82
OELWEIN *      SUNNY     81  57  44 W15       29.84S HX  81
WATERLOO       MOSUNNY   79  59  50 SW10      29.83S HX  80
6HR MIN TEMP:  68; 6HR MAX TEMP:  82;

$$

IAZ064-065-067-068-078-260100-
   EAST CENTRAL IOWA

CITY           SKY/WX    TMP DP  RH WIND       PRES   REMARKS
DAVENPORT      SUNNY     82  58  43 SW16      29.86S HX  82
6HR MIN TEMP:  81; 6HR MAX TEMP:  85; 6HR PCP: TRACE;

IOWA CITY      SUNNY     82  58  43 SW12      29.86F HX  82
6HR MIN TEMP:  79; 6HR MAX TEMP:  83;

MT. PLEASANT * SUNNY     85  64  49 SW8       29.86S HX  86
MUSCATINE *    SUNNY     82  59  44 SW9G16    29.85S HX  82
QUAD CITIES    MOSUNNY   83  59  44 SW7       29.85R HX  83
6HR MIN TEMP:  82; 6HR MAX TEMP:  87;

$$

IAZ062-063-075>077-085>089-095>099-260100-
   SOUTHEAST IOWA

CITY           SKY/WX    TMP DP  RH WIND       PRES   REMARKS
BURLINGTON     SUNNY     83  64  52 SW12      29.86R HX  84
6HR MIN TEMP:  77; 6HR MAX TEMP:  84;

FAIRFIELD *      N/A    N/A N/A N/A MISG        N/A
FORT MADISON * MOSUNNY   82  64  54 S6        29.87S HX  84
KEOKUK *       SUNNY     82  63  51 S9        29.86S HX  83
OSKALOOSA *      N/A     81  60  48 S12       29.86S HX  82
OTTUMWA        SUNNY     80  62  54 SW8       29.85F HX  81
6HR MIN TEMP:  76; 6HR MAX TEMP:  83;

WASHINGTON *   SUNNY     82  70  65 SW12      29.87S HX  86
$$

ABBREVIATIONS USED IN REMARKS
   TC - TEMPERATURES IN CELSIUS
  WCI - WIND CHILL INDEX
   HX - HEAT INDEX
  VSB - VISIBILITY
$$





USA.gov is the U.S. government's official web portal to all federal, state and local government web resources and services.